Tracking 19280 objects as of 15-Nov-2018
HD Live streaming from Space Station
objects crossing your sky now

COSMOS 2268

Track COSMOS 2268 now!
10-day predictions
COSMOS 2268 is classified as:


NORAD ID: 22999
Int'l Code: 1994-011A
Perigee: 1,417.6 km
Apogee: 1,433.1 km
Inclination: 82.6 °
Period: 114.2 minutes
Semi major axis: 7796 km
RCS: 1.1684 m2 (large)
Launch date: February 12, 1994
Source: Commonwealth of Independent States (former USSR) (CIS)
Launch site: PLESETSK MISSILE AND SPACE COMPLEX (PKMTR)
aabbcc
Your satellite tracking list
Your tracking list is empty




NASA's NSSDC Master Catalog

Two Line Element Set (TLE):
1 22999U 94011A   18319.04531515  .00000009  00000-0 -74842-5 0  9992
2 22999  82.5730 305.4092 0009918 356.5471  62.6191 12.61152880139652
Source of the keplerian elements: AFSPC